Tracking 35055 objects as of 18-Aug-2026
HD Live streaming from Space Station
objects crossing your sky now

OBJECT F

Track OBJECT F now!
10-day predictions


NORAD ID: 51951
Int'l Code: 2022-023F
Launch date: March 5, 2022
Source: People's Republic of China (PRC)
Launch site: Xichang Space Center, China (XSC)
Your satellite tracking list
Your tracking list is empty




NASA's NSSDC Master Catalog

Two Line Element Set (TLE):
1 51951U 22023F   26230.13643057  .00003716  00000-0  15464-3 0  9992
2 51951  63.4475  62.8898 0133229 341.5166  18.1129 15.17962899247113
Source of the keplerian elements: AFSPC